This is the latest recevied weather packets stored in our database for station/object N5MDT. If no packets are shown the sender has not sent any weather packets the latest 10 day(s).
| Time | Temp. | Humidity | Pressure | Rain* | Wind** | Luminosity | Snow |
|---|---|---|---|---|---|---|---|
| 1777522106 | 22.78° C | 83% | 1013 hPa | 0 mm | - | - | - |
| 1777521506 | 22.78° C | 83% | 1013 hPa | 0 mm | - | - | - |
| 1777520906 | 23.33° C | 83% | 1013.1 hPa | 0 mm | - | - | - |
| 1777520306 | 23.33° C | 83% | 1012.8 hPa | 0 mm | - | - | - |
| 1777519706 | 23.33° C | 82% | 1012.5 hPa | 0 mm | - | - | - |
| 1777519106 | 23.89° C | 82% | 1012.6 hPa | 0 mm | - | - | - |
| 1777518506 | 23.89° C | 82% | 1012.7 hPa | 0 mm | - | - | - |
| 1777517906 | 24.44° C | 81% | 1012.5 hPa | 0 mm | - | - | - |
| 1777517306 | 25° C | 81% | 1012.5 hPa | 0 mm | - | - | - |
| 1777516706 | 25.56° C | 81% | 1012.3 hPa | 0 mm | - | - | - |
| 1777516106 | 26.11° C | 82% | 1012.2 hPa | 0 mm | - | - | - |
| 1777515505 | 26.67° C | 83% | 1011.8 hPa | 0 mm | - | - | - |
| 1777514905 | 26.67° C | 83% | 1011.5 hPa | 0 mm | - | - | - |
| 1777514305 | 26.67° C | 83% | 1011.5 hPa | 0 mm | - | - | - |
| 1777513706 | 27.22° C | 82% | 1011.3 hPa | 0 mm | - | - | - |
| 1777513105 | 27.22° C | 82% | 1011.2 hPa | 0 mm | - | - | - |
| 1777512505 | 27.22° C | 81% | 1010.6 hPa | 0 mm | - | - | - |
| 1777511905 | 27.78° C | 81% | 1010.6 hPa | 0 mm | - | - | - |
| 1777511305 | 27.78° C | 81% | 1010.5 hPa | 0 mm | - | - | - |
| 1777509505 | 28.33° C | 78% | 1010.2 hPa | 0 mm | - | - | - |
| 1777508305 | 28.33° C | 77% | 1010.1 hPa | 0 mm | - | - | - |
| 1777502304 | 29.44° C | 73% | 1009.8 hPa | 0 mm | - | - | - |
| 1777501704 | 29.44° C | 72% | 1009.5 hPa | 0 mm | - | - | - |
| 1777501104 | 30° C | 70% | 1010 hPa | 0 mm | - | - | - |
| 1777500504 | 30.56° C | 70% | 1010.3 hPa | 0 mm | - | - | - |
* Rain latest hour (hover to see other rain measurements)
** Current wind speed in m/s (hover to see current wind gust speed)